Location: *
(49.9853°N, 3.5569°E)
Time: 21:27:23
(UTC+00:00)

CZ-2C R/B - Pass Details

Date: 22 September 2019
Orbit: 705 x 907 km, 98.1° (Epoch: 18 October)

Event Time Altitude Azimuth Distance (km) Brightness Sun altitude
Exits shadow 19:55:54 36° 155° (SSE) 1,286 3.7 -21.1°
Maximum altitude 19:58:12 80° 73° (ENE) 860 3.1 -21.4°
Drops below altitude 10° 20:03:51 10° 348° (NNW) 2,533 6.2 -22.2°
Sets 20:06:18 0° 347° (NNW) 3,498 7.0 -22.6°
